Location: Kaltenbach
(49.2000°N, 7.7500°E)
Time: 06:14:43
(UTC+00:00)

Cosmos 1842 Rocket - Pass Details

Date: 24 January 2020
Orbit: 606 x 633 km, 82.5° (Epoch: 23 February)

Event Time Altitude Azimuth Distance (km) Brightness Sun altitude
Rises 18:10:51 0° 352° (N) 2,931 7.0 -19.2°
Reaches altitude 10° 18:13:06 10° 354° (N) 2,022 6.2 -19.6°
Maximum altitude 18:17:35 69° 79° (ENE) 679 3.5 -20.3°
Drops below altitude 10° 18:22:02 10° 163° (SSE) 2,012 6.1 -21.0°
Sets 18:24:17 0° 166° (SSE) 2,916 6.9 -21.4°
